N737GG LXGB-TAPA

Flight info

Callsign N737GG
Flight time N/A
Altitude 38000
Route XAVIR DCT AMPIR DCT ABODA DCT BENTU DCT SNT DCT RIPOD DCT 2830N DCT 2634N DCT 2440N DCT 2248N DCT 2054N DCT CITRS DCT ANU
Aircraft B738/M-Q/L

Departure

Time N/A
Airport Gibraltar Airport (LXGB)

Arrival

Time 2026-04-20 02:17
Airport V. C. Bird International Airport (TAPA)
Time Latitude Longitude Altitude Speed Heading
2026-04-19 20:53 27.72232 -30.57798 38053 ft 409 kts 245°
2026-04-19 20:53 27.69493 -30.63456 38048 ft 411 kts 245°
2026-04-19 20:54 27.66754 -30.69110 38047 ft 412 kts 245°
2026-04-19 20:54 27.63998 -30.74788 38049 ft 412 kts 245°
2026-04-19 20:55 27.61257 -30.80430 38045 ft 413 kts 245°
2026-04-19 20:55 27.58495 -30.86105 38046 ft 413 kts 245°
2026-04-19 20:56 27.55730 -30.91780 38045 ft 413 kts 245°
2026-04-19 20:56 27.52963 -30.97450 38046 ft 412 kts 245°
2026-04-19 20:57 27.50203 -31.03099 38044 ft 411 kts 245°
2026-04-19 20:57 27.47448 -31.08732 38044 ft 410 kts 245°
2026-04-19 20:58 27.45160 -31.13404 38044 ft 409 kts 245°
2026-04-19 20:58 27.41958 -31.19934 37998 ft 409 kts 245°
2026-04-19 20:59 27.39653 -31.24627 37990 ft 409 kts 245°
2026-04-19 20:59 27.36902 -31.30223 37991 ft 408 kts 245°
2026-04-19 21:00 27.34174 -31.35766 37990 ft 407 kts 245°
2026-04-19 21:00 27.31428 -31.41335 37992 ft 407 kts 245°
2026-04-19 21:01 27.28683 -31.46899 37990 ft 407 kts 245°
2026-04-19 21:01 27.25937 -31.52454 37990 ft 407 kts 245°
2026-04-19 21:02 27.23188 -31.58010 38016 ft 406 kts 245°
2026-04-19 21:02 27.20440 -31.63556 38015 ft 406 kts 245°
2026-04-19 21:03 27.17707 -31.69066 38018 ft 406 kts 245°
2026-04-19 21:03 27.14949 -31.74617 38021 ft 407 kts 245°
2026-04-19 21:04 27.12190 -31.80166 38018 ft 407 kts 245°
2026-04-19 21:04 27.09426 -31.85714 38019 ft 407 kts 245°
2026-04-19 21:05 27.06661 -31.91260 38019 ft 407 kts 245°
2026-04-19 21:05 27.03892 -31.96804 38016 ft 406 kts 245°
2026-04-19 21:06 27.01132 -32.02326 38020 ft 406 kts 245°
2026-04-19 21:06 26.98390 -32.07802 38019 ft 405 kts 245°
2026-04-19 21:07 26.95636 -32.13298 38020 ft 404 kts 245°
2026-04-19 21:07 26.92882 -32.18785 38015 ft 403 kts 245°
2026-04-19 21:08 26.90136 -32.24250 38017 ft 401 kts 245°
2026-04-19 21:08 26.87400 -32.29687 38015 ft 400 kts 245°
2026-04-19 21:09 26.84667 -32.35114 38019 ft 399 kts 245°
2026-04-19 21:09 26.81940 -32.40520 38016 ft 398 kts 245°
2026-04-19 21:10 26.79216 -32.45915 38030 ft 397 kts 245°
2026-04-19 21:10 26.76503 -32.51282 38025 ft 396 kts 245°
2026-04-19 21:11 26.73804 -32.56614 38028 ft 395 kts 245°
2026-04-19 21:11 26.71099 -32.61950 38026 ft 394 kts 245°
2026-04-19 21:12 26.68398 -32.67274 38026 ft 393 kts 245°
2026-04-19 21:12 26.65701 -32.72583 38027 ft 392 kts 245°
2026-04-19 21:13 26.63005 -32.77883 38028 ft 392 kts 245°
2026-04-19 21:13 26.60310 -32.83176 38028 ft 392 kts 245°
2026-04-19 21:14 26.57612 -32.88468 38026 ft 392 kts 246°
2026-04-19 21:14 26.54931 -32.93720 38034 ft 391 kts 245°
2026-04-19 21:15 26.52232 -32.99001 38025 ft 391 kts 245°
2026-04-19 21:15 26.49533 -33.04275 38026 ft 391 kts 246°
2026-04-19 21:16 26.46834 -33.09544 38030 ft 391 kts 246°
2026-04-19 21:16 26.44136 -33.14803 38026 ft 390 kts 246°
2026-04-19 21:17 26.41440 -33.20053 38029 ft 390 kts 246°
2026-04-19 21:17 26.38741 -33.25303 38026 ft 389 kts 246°
2026-04-19 21:18 26.36052 -33.30528 38029 ft 388 kts 246°
2026-04-19 21:18 26.33361 -33.35748 38026 ft 388 kts 246°
2026-04-19 21:19 26.30674 -33.40957 38028 ft 387 kts 246°
2026-04-19 21:19 26.27995 -33.46144 38026 ft 385 kts 246°
2026-04-19 21:20 26.25340 -33.51277 38030 ft 384 kts 246°
2026-04-19 21:20 26.22673 -33.56430 38023 ft 383 kts 246°
2026-04-19 21:21 26.17289 -33.66812 38026 ft 380 kts 246°
2026-04-19 21:22 26.14699 -33.71798 38029 ft 379 kts 246°
2026-04-19 21:22 26.12058 -33.76876 38025 ft 378 kts 246°
2026-04-19 21:23 26.09426 -33.81933 38030 ft 377 kts 246°
2026-04-19 21:23 26.06797 -33.86978 38025 ft 377 kts 246°
2026-04-19 21:24 26.04187 -33.91983 38029 ft 376 kts 246°
2026-04-19 21:24 26.01559 -33.97014 38027 ft 376 kts 246°
2026-04-19 21:25 25.99276 -34.02180 38031 ft 368 kts 257°
2026-04-19 21:25 25.97641 -34.07563 38038 ft 368 kts 256°
2026-04-19 21:26 25.95992 -34.12951 38037 ft 369 kts 256°
2026-04-19 21:26 25.94326 -34.18359 38039 ft 370 kts 256°
2026-04-19 21:27 25.92664 -34.23735 38037 ft 370 kts 256°
2026-04-19 21:27 25.90986 -34.29148 38038 ft 371 kts 256°
2026-04-19 21:28 25.89304 -34.34566 38036 ft 371 kts 256°
2026-04-19 21:28 25.87622 -34.39971 38038 ft 371 kts 256°
2026-04-19 21:29 25.85936 -34.45385 38039 ft 371 kts 256°
2026-04-19 21:29 25.84248 -34.50795 38036 ft 370 kts 256°
2026-04-19 21:30 25.82564 -34.56185 38035 ft 368 kts 256°
2026-04-19 21:30 25.80897 -34.61512 38037 ft 367 kts 256°
2026-04-19 21:31 25.79223 -34.66855 38034 ft 365 kts 256°
2026-04-19 21:31 25.77554 -34.72173 38035 ft 363 kts 256°
2026-04-19 21:32 25.75894 -34.77458 38038 ft 362 kts 256°
2026-04-19 21:32 25.74236 -34.82727 38036 ft 361 kts 256°
2026-04-19 21:33 25.72594 -34.87939 38037 ft 360 kts 256°
2026-04-19 21:33 25.70943 -34.93173 38037 ft 359 kts 256°
2026-04-19 21:34 25.69292 -34.98398 38038 ft 359 kts 256°
2026-04-19 21:34 25.67641 -35.03618 38037 ft 359 kts 256°
2026-04-19 21:35 25.65986 -35.08840 38037 ft 359 kts 256°
2026-04-19 21:35 25.64331 -35.14056 38054 ft 359 kts 256°
2026-04-19 21:36 25.62674 -35.19274 38069 ft 359 kts 256°
2026-04-19 21:36 25.61022 -35.24465 38073 ft 359 kts 256°
2026-04-19 21:37 25.59355 -35.29698 38074 ft 360 kts 256°
2026-04-19 21:37 25.57683 -35.34936 38075 ft 360 kts 256°
2026-04-19 21:38 25.56010 -35.40172 38073 ft 361 kts 256°
2026-04-19 21:38 25.54332 -35.45419 38073 ft 361 kts 256°
2026-04-19 21:39 25.52663 -35.50626 38077 ft 361 kts 256°
2026-04-19 21:39 25.50980 -35.55871 38073 ft 361 kts 256°
2026-04-19 21:40 25.48453 -35.63733 38074 ft 361 kts 256°
2026-04-19 21:41 25.47050 -35.68090 38072 ft 361 kts 256°
2026-04-19 21:41 25.45363 -35.73325 38073 ft 361 kts 256°
2026-04-19 21:42 25.43678 -35.78542 38074 ft 360 kts 256°
2026-04-19 21:42 25.42001 -35.83731 38072 ft 360 kts 256°
2026-04-19 21:43 25.40311 -35.88954 38073 ft 359 kts 256°
2026-04-19 21:43 25.38624 -35.94159 38074 ft 359 kts 256°
2026-04-19 21:44 25.36937 -35.99356 38075 ft 359 kts 256°
2026-04-19 21:44 25.35249 -36.04551 38075 ft 359 kts 256°
2026-04-19 21:45 25.33562 -36.09734 38076 ft 358 kts 256°
2026-04-19 21:45 25.31874 -36.14912 38072 ft 357 kts 256°
2026-04-19 21:46 25.30190 -36.20072 38072 ft 357 kts 256°
2026-04-19 21:46 25.28514 -36.25203 38076 ft 356 kts 256°
2026-04-19 21:47 25.26833 -36.30342 38074 ft 356 kts 256°
2026-04-19 21:47 25.25150 -36.35477 38072 ft 355 kts 256°
2026-04-19 21:48 25.23467 -36.40608 38077 ft 354 kts 256°
2026-04-19 21:48 25.21795 -36.45698 38072 ft 354 kts 256°
2026-04-19 21:49 25.20114 -36.50808 38075 ft 353 kts 256°
2026-04-19 21:49 25.18435 -36.55907 38072 ft 353 kts 256°
2026-04-19 21:50 25.16756 -36.60996 38072 ft 353 kts 256°
2026-04-19 21:50 25.15076 -36.66083 38076 ft 352 kts 256°
2026-04-19 21:51 25.13398 -36.71159 38072 ft 352 kts 256°
2026-04-19 21:51 25.11718 -36.76232 38073 ft 352 kts 256°
2026-04-19 21:52 25.10048 -36.81270 38078 ft 351 kts 256°
2026-04-19 21:52 25.08367 -36.86335 38077 ft 351 kts 256°
2026-04-19 21:53 25.06686 -36.91394 38072 ft 351 kts 256°
2026-04-19 21:53 25.05002 -36.96452 38072 ft 351 kts 256°
2026-04-19 21:54 25.03320 -37.01498 38073 ft 350 kts 256°
2026-04-19 21:54 25.01648 -37.06512 38074 ft 350 kts 256°
2026-04-19 21:55 24.99962 -37.11557 38073 ft 350 kts 256°
2026-04-19 21:55 24.98273 -37.16607 38073 ft 350 kts 256°
2026-04-19 21:56 24.96584 -37.21647 38074 ft 350 kts 256°
2026-04-19 21:56 24.94897 -37.26678 38072 ft 350 kts 256°
2026-04-19 21:57 24.93216 -37.31684 38074 ft 350 kts 256°
2026-04-19 21:57 24.91525 -37.36713 38070 ft 350 kts 256°
2026-04-19 21:58 24.89830 -37.41748 38063 ft 350 kts 256°
2026-04-19 21:58 24.88136 -37.46773 38071 ft 349 kts 256°
2026-04-19 21:59 24.86443 -37.51788 38073 ft 349 kts 256°
2026-04-19 21:59 24.84751 -37.56795 38075 ft 349 kts 256°
2026-04-19 22:00 24.83069 -37.61765 38073 ft 348 kts 256°
2026-04-19 22:00 24.81379 -37.66755 38073 ft 348 kts 256°
2026-04-19 22:01 24.79686 -37.71745 38074 ft 347 kts 256°
2026-04-19 22:01 24.77997 -37.76717 38073 ft 347 kts 256°
2026-04-19 22:02 24.76306 -37.81691 38076 ft 346 kts 256°
2026-04-19 22:02 24.74617 -37.86650 38073 ft 346 kts 256°
2026-04-19 22:03 24.72929 -37.91601 38073 ft 346 kts 256°
2026-04-19 22:03 24.71240 -37.96551 38076 ft 345 kts 256°
2026-04-19 22:04 24.69551 -38.01492 38074 ft 345 kts 255°
2026-04-19 22:04 24.67873 -38.06397 38073 ft 344 kts 256°
2026-04-19 22:05 24.66181 -38.11335 38074 ft 344 kts 256°
2026-04-19 22:05 24.64493 -38.16258 38073 ft 343 kts 255°
2026-04-19 22:06 24.62817 -38.21138 38072 ft 343 kts 255°
2026-04-19 22:06 24.61130 -38.26042 38073 ft 342 kts 255°
2026-04-19 22:07 24.59443 -38.30943 38073 ft 342 kts 255°
2026-04-19 22:07 24.57759 -38.35828 38074 ft 342 kts 255°
2026-04-19 22:08 24.56074 -38.40714 38074 ft 342 kts 255°
2026-04-19 22:08 24.54388 -38.45594 38073 ft 342 kts 255°
2026-04-19 22:09 24.52710 -38.50443 38075 ft 342 kts 255°
2026-04-19 22:09 24.51018 -38.55331 38074 ft 342 kts 255°
2026-04-19 22:10 24.49324 -38.60214 38073 ft 342 kts 255°
2026-04-19 22:10 24.47626 -38.65107 38073 ft 342 kts 255°
2026-04-19 22:11 24.45926 -38.69998 38074 ft 343 kts 255°
2026-04-19 22:11 24.44226 -38.74882 38074 ft 343 kts 255°
2026-04-19 22:12 24.42533 -38.79741 38074 ft 343 kts 255°
2026-04-19 22:12 24.40826 -38.84635 38073 ft 343 kts 255°
2026-04-19 22:13 24.39119 -38.89523 38061 ft 343 kts 255°
2026-04-19 22:13 24.37405 -38.94425 38055 ft 344 kts 255°
2026-04-19 22:14 24.35692 -38.99319 38056 ft 343 kts 255°
2026-04-19 22:14 24.33977 -39.04211 38055 ft 343 kts 255°
2026-04-19 22:15 24.32264 -39.09094 38056 ft 343 kts 255°
2026-04-19 22:15 24.30561 -39.13940 38054 ft 343 kts 255°
2026-04-19 22:16 24.28845 -39.18820 38057 ft 342 kts 255°
2026-04-19 22:16 24.27127 -39.23697 38054 ft 342 kts 255°
2026-04-19 22:17 24.25414 -39.28558 38055 ft 342 kts 255°
2026-04-19 22:17 24.23702 -39.33407 38054 ft 341 kts 255°
2026-04-19 22:18 24.21999 -39.38227 38056 ft 341 kts 255°
2026-04-19 22:18 24.20287 -39.43066 38054 ft 340 kts 255°
2026-04-19 22:19 24.18579 -39.47888 38055 ft 339 kts 255°
2026-04-19 22:19 24.16867 -39.52716 38055 ft 339 kts 255°
2026-04-19 22:20 24.15161 -39.57523 38056 ft 338 kts 255°
2026-04-19 22:20 24.13463 -39.62300 38054 ft 338 kts 255°
2026-04-19 22:21 24.11754 -39.67105 38056 ft 338 kts 255°
2026-04-19 22:21 24.10047 -39.71895 38056 ft 337 kts 255°
2026-04-19 22:22 24.08340 -39.76684 38055 ft 337 kts 255°
2026-04-19 22:22 24.06644 -39.81435 38056 ft 337 kts 255°
2026-04-19 22:23 24.04935 -39.86215 38056 ft 337 kts 255°
2026-04-19 22:23 24.03226 -39.90995 38056 ft 337 kts 255°
2026-04-19 22:24 24.01513 -39.95778 38056 ft 337 kts 255°
2026-04-19 22:24 23.99866 -40.00575 38053 ft 335 kts 259°
2026-04-19 22:25 23.98756 -40.05472 38063 ft 333 kts 261°
2026-04-19 22:25 23.97676 -40.10406 38065 ft 334 kts 261°
2026-04-19 22:26 23.96587 -40.15350 38066 ft 334 kts 261°
2026-04-19 22:26 23.95492 -40.20294 38064 ft 335 kts 260°
2026-04-19 22:27 23.94391 -40.25243 38065 ft 335 kts 260°
2026-04-19 22:27 23.93287 -40.30196 38065 ft 335 kts 260°
2026-04-19 22:28 23.92187 -40.35117 38065 ft 335 kts 260°
2026-04-19 22:28 23.91079 -40.40069 38062 ft 335 kts 260°
2026-04-19 22:29 23.89970 -40.45017 38064 ft 335 kts 260°
2026-04-19 22:29 23.88858 -40.49969 38065 ft 335 kts 260°
2026-04-19 22:30 23.87933 -40.54081 38062 ft 335 kts 260°
2026-04-19 22:30 23.86635 -40.59843 38065 ft 335 kts 260°
2026-04-19 22:31 23.85699 -40.63993 38063 ft 336 kts 260°
2026-04-19 22:31 23.84579 -40.68951 38068 ft 336 kts 259°
2026-04-19 22:32 23.83463 -40.73883 38064 ft 336 kts 259°
2026-04-19 22:32 23.82339 -40.78846 38064 ft 337 kts 259°
2026-04-19 22:33 23.81210 -40.83817 38065 ft 337 kts 259°
2026-04-19 22:33 23.80081 -40.88786 38063 ft 338 kts 259°
2026-04-19 22:34 23.78948 -40.93760 38066 ft 338 kts 259°
2026-04-19 22:34 23.77816 -40.98723 38065 ft 338 kts 259°
2026-04-19 22:35 23.76676 -41.03715 38063 ft 339 kts 259°
2026-04-19 22:35 23.75533 -41.08710 38065 ft 339 kts 259°
2026-04-19 22:36 23.74387 -41.13713 38066 ft 340 kts 259°
2026-04-19 22:36 23.73237 -41.18723 38064 ft 340 kts 259°
2026-04-19 22:37 23.72084 -41.23736 38065 ft 340 kts 259°
2026-04-19 22:37 23.70930 -41.28751 38064 ft 340 kts 259°
2026-04-19 22:38 23.69781 -41.33730 38064 ft 340 kts 259°
2026-04-19 22:38 23.68624 -41.38741 38064 ft 340 kts 259°
2026-04-19 22:39 23.67466 -41.43747 38064 ft 340 kts 259°
2026-04-19 22:39 23.66310 -41.48735 38114 ft 338 kts 258°
2026-04-19 22:40 23.65158 -41.53698 38187 ft 338 kts 258°
2026-04-19 22:40 23.64002 -41.58674 38263 ft 339 kts 258°
2026-04-19 22:41 23.62849 -41.63630 38337 ft 339 kts 258°
2026-04-19 22:41 23.61685 -41.68622 38413 ft 340 kts 258°
2026-04-19 22:42 23.60520 -41.73614 38486 ft 340 kts 258°
2026-04-19 22:42 23.59350 -41.78616 38561 ft 340 kts 258°
2026-04-19 22:43 23.58179 -41.83614 38632 ft 340 kts 258°
2026-04-19 22:43 23.57005 -41.88619 38709 ft 340 kts 258°
2026-04-19 22:44 23.55840 -41.93578 38781 ft 339 kts 258°
2026-04-19 22:44 23.54667 -41.98562 38855 ft 339 kts 258°
2026-04-19 22:45 23.53497 -42.03529 38929 ft 338 kts 258°
2026-04-19 22:45 23.52327 -42.08484 39000 ft 337 kts 258°
2026-04-19 22:46 23.51164 -42.13406 39072 ft 336 kts 258°
2026-04-19 22:46 23.49997 -42.18336 39146 ft 336 kts 258°
2026-04-19 22:47 23.48826 -42.23275 39219 ft 336 kts 258°
2026-04-19 22:47 23.47664 -42.28169 39292 ft 335 kts 258°
2026-04-19 22:48 23.46492 -42.33100 39367 ft 335 kts 258°
2026-04-19 22:48 23.45319 -42.38024 39438 ft 336 kts 258°
2026-04-19 22:49 23.44142 -42.42960 39515 ft 336 kts 257°
2026-04-19 22:49 23.42969 -42.47872 39591 ft 338 kts 257°
2026-04-19 22:50 23.41784 -42.52828 39668 ft 339 kts 257°
2026-04-19 22:50 23.40589 -42.57814 39745 ft 341 kts 257°
2026-04-19 22:51 23.39388 -42.62821 39820 ft 343 kts 257°
2026-04-19 22:51 23.38179 -42.67852 39943 ft 343 kts 257°
2026-04-19 22:51 23.37575 -42.70359 40033 ft 342 kts 257°
2026-04-19 22:52 23.36362 -42.75397 40060 ft 345 kts 257°
2026-04-19 22:52 23.35149 -42.80428 40057 ft 347 kts 257°
2026-04-19 22:53 23.33915 -42.85537 40075 ft 350 kts 257°
2026-04-19 22:53 23.32669 -42.90688 40069 ft 353 kts 257°
2026-04-19 22:54 23.31411 -42.95878 40070 ft 356 kts 257°
2026-04-19 22:54 23.30145 -43.01094 40064 ft 357 kts 257°
2026-04-19 22:55 23.28874 -43.06320 40064 ft 358 kts 257°
2026-04-19 22:55 23.27606 -43.11527 40063 ft 357 kts 257°
2026-04-19 22:56 23.26334 -43.16743 40064 ft 356 kts 257°
2026-04-19 22:56 23.25067 -43.21932 40054 ft 354 kts 257°
2026-04-19 22:57 23.23813 -43.27058 40049 ft 352 kts 256°
2026-04-19 22:57 23.22557 -43.32186 40058 ft 349 kts 256°
2026-04-19 22:58 23.21308 -43.37279 40056 ft 348 kts 256°
2026-04-19 22:58 23.20062 -43.42349 40059 ft 346 kts 256°
2026-04-19 22:59 23.18826 -43.47372 40060 ft 345 kts 256°
2026-04-19 22:59 23.17584 -43.52413 40053 ft 345 kts 256°
2026-04-19 23:00 23.16340 -43.57455 40057 ft 346 kts 256°
2026-04-19 23:00 23.15089 -43.62519 40057 ft 347 kts 256°
2026-04-19 23:01 23.13841 -43.67560 40051 ft 348 kts 256°
2026-04-19 23:01 23.12579 -43.72655 40061 ft 350 kts 256°
2026-04-19 23:02 23.11310 -43.77765 40059 ft 351 kts 256°
2026-04-19 23:02 23.10036 -43.82891 40059 ft 352 kts 256°
2026-04-19 23:03 23.08755 -43.88035 40054 ft 353 kts 256°
2026-04-19 23:03 23.07469 -43.93191 40060 ft 354 kts 256°
2026-04-19 23:04 23.06181 -43.98350 40045 ft 354 kts 256°
2026-04-19 23:04 23.04889 -44.03514 40061 ft 354 kts 256°
2026-04-19 23:05 23.03817 -44.07796 40055 ft 354 kts 256°
2026-04-19 23:05 23.02526 -44.12945 40059 ft 353 kts 256°
2026-04-19 23:06 23.01026 -44.18915 40047 ft 352 kts 256°
2026-04-19 23:06 22.99736 -44.24043 40053 ft 352 kts 256°
2026-04-19 23:07 22.98445 -44.29168 40058 ft 351 kts 256°
2026-04-19 23:07 22.97155 -44.34279 40051 ft 351 kts 256°
2026-04-19 23:08 22.95866 -44.39382 40059 ft 350 kts 256°
2026-04-19 23:08 22.94574 -44.44486 40048 ft 350 kts 256°
2026-04-19 23:09 22.93290 -44.49551 40046 ft 350 kts 255°
2026-04-19 23:09 22.91989 -44.54680 40053 ft 350 kts 255°
2026-04-19 23:10 22.90701 -44.59746 40069 ft 351 kts 255°
2026-04-19 23:10 22.89402 -44.64851 40065 ft 351 kts 255°
2026-04-19 23:11 22.88099 -44.69962 40064 ft 352 kts 255°
2026-04-19 23:11 22.86791 -44.75086 40070 ft 352 kts 255°
2026-04-19 23:12 22.85479 -44.80219 40063 ft 353 kts 255°
2026-04-19 23:12 22.84171 -44.85329 40058 ft 354 kts 255°
2026-04-19 23:13 22.82853 -44.90471 40061 ft 354 kts 255°
2026-04-19 23:13 22.81529 -44.95628 40056 ft 355 kts 255°
2026-04-19 23:14 22.80203 -45.00784 40069 ft 355 kts 255°
2026-04-19 23:14 22.78875 -45.05941 40067 ft 355 kts 255°
2026-04-19 23:15 22.77544 -45.11102 40059 ft 355 kts 255°
2026-04-19 23:15 22.76213 -45.16259 40068 ft 355 kts 255°
2026-04-19 23:16 22.74890 -45.21375 40067 ft 355 kts 255°
2026-04-19 23:16 22.73554 -45.26532 40056 ft 355 kts 255°
2026-04-19 23:17 22.72445 -45.30810 40063 ft 354 kts 255°
2026-04-19 23:17 22.70892 -45.36788 40054 ft 354 kts 255°
2026-04-19 23:18 22.69773 -45.41093 40067 ft 353 kts 255°
2026-04-19 23:18 22.68446 -45.46188 40061 ft 353 kts 255°
2026-04-19 23:19 22.67113 -45.51302 40066 ft 353 kts 255°
2026-04-19 23:19 22.65779 -45.56411 40063 ft 353 kts 255°
2026-04-19 23:20 22.64440 -45.61532 40061 ft 353 kts 255°
2026-04-19 23:20 22.63100 -45.66650 40064 ft 353 kts 255°
2026-04-19 23:21 22.61764 -45.71743 40059 ft 354 kts 255°
2026-04-19 23:21 22.60414 -45.76883 40067 ft 354 kts 254°
2026-04-19 23:22 22.59066 -45.82012 40070 ft 355 kts 254°
2026-04-19 23:22 22.57710 -45.87161 40070 ft 356 kts 254°
2026-04-19 23:23 22.56350 -45.92316 40058 ft 357 kts 254°
2026-04-19 23:23 22.54996 -45.97446 40046 ft 357 kts 254°
2026-04-19 23:24 22.53626 -46.02625 40059 ft 358 kts 254°
2026-04-19 23:24 22.52255 -46.07803 40060 ft 358 kts 254°
2026-04-19 23:25 22.50880 -46.12986 40058 ft 359 kts 254°
2026-04-19 23:25 22.49503 -46.18173 40059 ft 359 kts 254°
2026-04-19 23:26 22.48124 -46.23357 40053 ft 359 kts 254°
2026-04-19 23:26 22.46744 -46.28541 40054 ft 359 kts 254°
2026-04-19 23:27 22.45371 -46.33688 40058 ft 358 kts 254°
2026-04-19 23:27 22.43987 -46.38873 40058 ft 358 kts 254°
2026-04-19 23:28 22.42605 -46.44039 40060 ft 358 kts 254°
2026-04-19 23:28 22.41223 -46.49199 40057 ft 357 kts 254°
2026-04-19 23:29 22.39843 -46.54348 40055 ft 356 kts 254°
2026-04-19 23:29 22.38461 -46.59491 40054 ft 356 kts 254°
2026-04-19 23:30 22.37090 -46.64592 40058 ft 355 kts 254°
2026-04-19 23:30 22.35711 -46.69714 40052 ft 355 kts 253°
2026-04-19 23:31 22.34331 -46.74829 40053 ft 354 kts 253°
2026-04-19 23:31 22.32951 -46.79943 40059 ft 354 kts 253°
2026-04-19 23:32 22.31569 -46.85053 40058 ft 354 kts 253°
2026-04-19 23:32 22.30195 -46.90128 40059 ft 354 kts 253°
2026-04-19 23:33 22.28812 -46.95229 40054 ft 354 kts 253°
2026-04-19 23:33 22.27426 -47.00336 40052 ft 354 kts 253°
2026-04-19 23:34 22.26035 -47.05453 40059 ft 355 kts 253°
2026-04-19 23:34 22.24645 -47.10560 40059 ft 355 kts 253°
2026-04-19 23:35 22.23258 -47.15649 40059 ft 355 kts 253°
2026-04-19 23:35 22.21852 -47.20801 40059 ft 356 kts 253°
2026-04-19 23:36 22.20452 -47.25924 40059 ft 356 kts 253°
2026-04-19 23:36 22.19056 -47.31022 40060 ft 356 kts 253°
2026-04-19 23:37 22.17649 -47.36159 40050 ft 357 kts 253°
2026-04-19 23:37 22.16239 -47.41297 40059 ft 357 kts 253°
2026-04-19 23:38 22.14825 -47.46444 40055 ft 357 kts 253°
2026-04-19 23:38 22.13409 -47.51589 40059 ft 358 kts 253°
2026-04-19 23:39 22.11992 -47.56732 40044 ft 358 kts 252°
2026-04-19 23:39 22.10581 -47.61847 40050 ft 358 kts 252°
2026-04-19 23:40 22.09160 -47.66992 40058 ft 358 kts 252°
2026-04-19 23:40 22.07736 -47.72142 40055 ft 358 kts 252°
2026-04-19 23:41 22.06310 -47.77291 40060 ft 358 kts 252°
2026-04-19 23:41 22.04882 -47.82438 40059 ft 358 kts 252°
2026-04-19 23:42 22.03462 -47.87555 40058 ft 358 kts 252°
2026-04-19 23:42 22.02031 -47.92702 40059 ft 358 kts 252°
2026-04-19 23:43 22.00599 -47.97846 40058 ft 358 kts 252°
2026-04-19 23:43 21.99118 -48.02978 40058 ft 358 kts 251°
2026-04-19 23:44 21.97521 -48.08065 40057 ft 358 kts 251°
2026-04-19 23:44 21.95922 -48.13122 40058 ft 358 kts 251°
2026-04-19 23:45 21.94324 -48.18202 40055 ft 358 kts 251°
2026-04-19 23:45 21.92728 -48.23290 40048 ft 358 kts 251°
2026-04-19 23:46 21.91136 -48.28370 40058 ft 358 kts 251°
2026-04-19 23:46 21.89544 -48.33449 40050 ft 358 kts 251°
2026-04-19 23:47 21.87950 -48.38525 40045 ft 358 kts 251°
2026-04-19 23:47 21.86355 -48.43600 40046 ft 358 kts 250°
2026-04-19 23:48 21.84756 -48.48682 40049 ft 358 kts 250°
2026-04-19 23:48 21.83155 -48.53765 40041 ft 358 kts 250°
2026-04-19 23:49 21.81562 -48.58813 40049 ft 358 kts 250°
2026-04-19 23:49 21.79957 -48.63897 40043 ft 359 kts 250°
2026-04-19 23:50 21.78350 -48.68980 40049 ft 359 kts 250°
2026-04-19 23:50 21.76741 -48.74063 40045 ft 359 kts 250°
2026-04-19 23:51 21.75128 -48.79152 40048 ft 359 kts 250°
2026-04-19 23:51 21.73514 -48.84240 40049 ft 359 kts 250°
2026-04-19 23:52 21.71906 -48.89301 40048 ft 359 kts 250°
2026-04-19 23:52 21.70289 -48.94387 40051 ft 360 kts 250°
2026-04-19 23:53 21.68666 -48.99481 40040 ft 360 kts 250°
2026-04-19 23:53 21.67043 -49.04573 40043 ft 360 kts 250°
2026-04-19 23:54 21.65420 -49.09659 40058 ft 360 kts 250°
2026-04-19 23:54 21.63792 -49.14753 40066 ft 359 kts 250°
2026-04-19 23:55 21.62179 -49.19796 40061 ft 359 kts 250°
2026-04-19 23:55 21.60553 -49.24871 40063 ft 359 kts 250°
2026-04-19 23:56 21.58928 -49.29939 40064 ft 359 kts 250°
2026-04-19 23:56 21.57300 -49.35011 40068 ft 358 kts 249°
2026-04-19 23:57 21.55674 -49.40070 40068 ft 358 kts 249°
2026-04-19 23:57 21.54058 -49.45092 40069 ft 358 kts 249°
2026-04-19 23:58 21.52432 -49.50140 40063 ft 357 kts 249°
2026-04-19 23:58 21.50806 -49.55179 40067 ft 357 kts 249°
2026-04-19 23:59 21.49182 -49.60209 40063 ft 356 kts 249°
2026-04-19 23:59 21.47553 -49.65247 40062 ft 356 kts 249°
2026-04-20 00:00 21.45942 -49.70227 40070 ft 356 kts 249°
2026-04-20 00:00 21.44316 -49.75244 40071 ft 355 kts 249°
2026-04-20 00:01 21.42690 -49.80255 40070 ft 355 kts 249°
2026-04-20 00:02 21.40251 -49.87765 40060 ft 355 kts 249°
2026-04-20 00:02 21.38633 -49.92737 40068 ft 355 kts 249°
2026-04-20 00:03 21.37006 -49.97735 40061 ft 355 kts 249°
2026-04-20 00:03 21.35374 -50.02738 40069 ft 355 kts 249°
2026-04-20 00:04 21.33744 -50.07732 40065 ft 355 kts 249°
2026-04-20 00:04 21.32110 -50.12734 40062 ft 355 kts 249°
2026-04-20 00:05 21.30474 -50.17733 40057 ft 355 kts 249°
2026-04-20 00:05 21.28836 -50.22734 40071 ft 355 kts 249°
2026-04-20 00:06 21.27206 -50.27706 40058 ft 355 kts 249°
2026-04-20 00:06 21.25563 -50.32710 40064 ft 355 kts 249°
2026-04-20 00:07 21.23921 -50.37706 40058 ft 355 kts 249°
2026-04-20 00:07 21.22555 -50.41860 40063 ft 355 kts 249°
2026-04-20 00:08 21.20908 -50.46860 40063 ft 355 kts 249°
2026-04-20 00:08 21.19260 -50.51860 40061 ft 356 kts 248°
2026-04-20 00:09 21.17621 -50.56826 40063 ft 356 kts 248°
2026-04-20 00:09 21.15967 -50.61832 40068 ft 356 kts 248°
2026-04-20 00:10 21.14314 -50.66831 40059 ft 356 kts 248°
2026-04-20 00:10 21.12653 -50.71847 40055 ft 356 kts 248°
2026-04-20 00:11 21.11004 -50.76820 40059 ft 357 kts 248°
2026-04-20 00:11 21.09342 -50.81828 40046 ft 357 kts 248°
2026-04-20 00:12 21.07675 -50.86847 40057 ft 357 kts 248°
2026-04-20 00:12 21.06006 -50.91864 40059 ft 358 kts 248°
2026-04-20 00:13 21.04334 -50.96886 40057 ft 358 kts 248°
2026-04-20 00:13 21.02659 -51.01911 40040 ft 358 kts 248°
2026-04-20 00:14 21.00995 -51.06897 40047 ft 358 kts 248°
2026-04-20 00:14 20.99317 -51.11921 40040 ft 358 kts 247°
2026-04-20 00:15 20.97640 -51.16935 40051 ft 357 kts 247°
2026-04-20 00:15 20.95963 -51.21944 40041 ft 357 kts 247°
2026-04-20 00:16 20.94293 -51.26924 40045 ft 357 kts 247°
2026-04-20 00:16 20.92615 -51.31926 40047 ft 356 kts 247°
2026-04-20 00:17 20.90940 -51.36913 40049 ft 356 kts 247°
2026-04-20 00:17 20.89261 -51.41904 40049 ft 356 kts 247°
2026-04-20 00:18 20.87587 -51.46877 40048 ft 356 kts 247°
2026-04-20 00:18 20.85910 -51.51854 40045 ft 355 kts 247°
2026-04-20 00:19 20.84243 -51.56797 40040 ft 355 kts 247°
2026-04-20 00:19 20.82563 -51.61770 40045 ft 355 kts 247°
2026-04-20 00:20 20.80885 -51.66734 40041 ft 355 kts 247°
2026-04-20 00:20 20.79203 -51.71703 40043 ft 356 kts 247°
2026-04-20 00:21 20.77518 -51.76675 40047 ft 356 kts 247°
2026-04-20 00:21 20.75831 -51.81650 40049 ft 356 kts 246°
2026-04-20 00:22 20.74139 -51.86630 40040 ft 357 kts 246°
2026-04-20 00:22 20.72444 -51.91618 40040 ft 357 kts 246°
2026-04-20 00:23 20.70746 -51.96609 40036 ft 358 kts 246°
2026-04-20 00:23 20.69054 -52.01574 40033 ft 358 kts 246°
2026-04-20 00:24 20.67347 -52.06582 40039 ft 358 kts 246°
2026-04-20 00:24 20.65642 -52.11576 40036 ft 358 kts 246°
2026-04-20 00:25 20.63941 -52.16555 40049 ft 358 kts 246°
2026-04-20 00:25 20.62233 -52.21547 40057 ft 357 kts 246°
2026-04-20 00:26 20.60528 -52.26527 40052 ft 357 kts 246°
2026-04-20 00:26 20.58820 -52.31509 40057 ft 357 kts 246°
2026-04-20 00:27 20.57111 -52.36488 40055 ft 357 kts 246°
2026-04-20 00:27 20.55414 -52.41427 40042 ft 357 kts 246°
2026-04-20 00:28 20.53707 -52.46391 40053 ft 356 kts 246°
2026-04-20 00:28 20.51998 -52.51354 40049 ft 356 kts 246°
2026-04-20 00:29 20.50288 -52.56317 40043 ft 356 kts 246°
2026-04-20 00:29 20.48683 -52.60970 40050 ft 355 kts 246°
2026-04-20 00:30 20.46984 -52.65889 40045 ft 355 kts 246°
2026-04-20 00:30 20.45273 -52.70840 40047 ft 355 kts 246°
2026-04-20 00:31 20.43564 -52.75778 40049 ft 354 kts 246°
2026-04-20 00:31 20.41856 -52.80709 40056 ft 354 kts 246°
2026-04-20 00:32 20.40158 -52.85605 40048 ft 354 kts 246°
2026-04-20 00:32 20.38452 -52.90519 40054 ft 353 kts 246°
2026-04-20 00:33 20.36745 -52.95434 40055 ft 353 kts 246°
2026-04-20 00:33 20.35038 -53.00340 40060 ft 353 kts 246°
2026-04-20 00:34 20.33331 -53.05243 40056 ft 353 kts 246°
2026-04-20 00:34 20.31623 -53.10144 40062 ft 353 kts 246°
2026-04-20 00:35 20.29921 -53.15022 40049 ft 353 kts 245°
2026-04-20 00:35 20.28211 -53.19919 40059 ft 352 kts 245°
2026-04-20 00:36 20.26500 -53.24812 40057 ft 352 kts 245°
2026-04-20 00:36 20.24787 -53.29706 40060 ft 352 kts 245°
2026-04-20 00:37 20.23069 -53.34610 40059 ft 353 kts 245°
2026-04-20 00:37 20.21362 -53.39479 40058 ft 352 kts 245°
2026-04-20 00:38 20.19650 -53.44357 40053 ft 351 kts 245°
2026-04-20 00:38 20.17943 -53.49216 40052 ft 350 kts 245°
2026-04-20 00:39 20.16237 -53.54065 40056 ft 349 kts 245°
2026-04-20 00:39 20.14540 -53.58885 40050 ft 349 kts 245°
2026-04-20 00:40 20.12834 -53.63725 40060 ft 349 kts 245°
2026-04-20 00:40 20.11126 -53.68567 40060 ft 350 kts 245°
2026-04-20 00:41 20.09412 -53.73420 40056 ft 350 kts 245°
2026-04-20 00:41 20.07703 -53.78257 40051 ft 351 kts 245°
2026-04-20 00:42 20.05978 -53.83133 40053 ft 352 kts 245°
2026-04-20 00:42 20.04243 -53.88032 40054 ft 353 kts 245°
2026-04-20 00:43 20.02517 -53.92903 40054 ft 354 kts 245°
2026-04-20 00:43 20.00775 -53.97814 40054 ft 355 kts 245°
2026-04-20 00:44 19.98997 -54.02709 40060 ft 354 kts 244°
2026-04-20 00:44 19.97134 -54.07564 40055 ft 354 kts 244°
2026-04-20 00:45 19.95266 -54.12409 40050 ft 354 kts 244°
2026-04-20 00:45 19.93413 -54.17229 40051 ft 354 kts 244°
2026-04-20 00:46 19.91554 -54.22074 40037 ft 354 kts 244°
2026-04-20 00:46 19.89695 -54.26921 40025 ft 353 kts 244°
2026-04-20 00:47 19.87842 -54.31748 40028 ft 352 kts 244°
2026-04-20 00:47 19.85992 -54.36563 40023 ft 352 kts 244°
2026-04-20 00:48 19.84140 -54.41379 40029 ft 351 kts 243°
2026-04-20 00:48 19.82302 -54.46156 40029 ft 351 kts 243°
2026-04-20 00:49 19.80449 -54.50966 40027 ft 351 kts 243°
2026-04-20 00:49 19.78607 -54.55743 40029 ft 351 kts 243°
2026-04-20 00:50 19.76746 -54.60563 40027 ft 352 kts 243°
2026-04-20 00:50 19.74888 -54.65372 40029 ft 353 kts 243°
2026-04-20 00:51 19.73020 -54.70204 40029 ft 353 kts 243°
2026-04-20 00:51 19.71161 -54.75007 40029 ft 354 kts 243°
2026-04-20 00:52 19.69281 -54.79859 40030 ft 355 kts 243°
2026-04-20 00:52 19.67397 -54.84718 40029 ft 356 kts 243°
2026-04-20 00:53 19.65505 -54.89593 40030 ft 357 kts 243°
2026-04-20 00:53 19.63611 -54.94470 40029 ft 358 kts 243°
2026-04-20 00:54 19.61721 -54.99331 40025 ft 358 kts 243°
2026-04-20 00:54 19.59816 -55.04226 40029 ft 359 kts 243°
2026-04-20 00:55 19.58230 -55.08300 40028 ft 359 kts 243°
2026-04-20 00:55 19.56324 -55.13188 40028 ft 359 kts 243°
2026-04-20 00:56 19.54416 -55.18078 40025 ft 358 kts 243°
2026-04-20 00:56 19.52508 -55.22963 40021 ft 358 kts 243°
2026-04-20 00:57 19.50617 -55.27802 40018 ft 357 kts 243°
2026-04-20 00:57 19.48713 -55.32669 40018 ft 357 kts 243°
2026-04-20 00:58 19.46812 -55.37521 40018 ft 356 kts 243°
2026-04-20 00:58 19.44922 -55.42343 40018 ft 356 kts 243°
2026-04-20 00:59 19.43022 -55.47186 40019 ft 355 kts 243°
2026-04-20 00:59 19.41121 -55.52027 40018 ft 355 kts 243°
2026-04-20 01:00 19.39235 -55.56825 40019 ft 355 kts 243°
2026-04-20 01:00 19.37335 -55.61653 40019 ft 355 kts 243°
2026-04-20 01:01 19.35435 -55.66479 40019 ft 355 kts 243°
2026-04-20 01:01 19.33535 -55.71299 40018 ft 355 kts 243°
2026-04-20 01:02 19.31637 -55.76111 40019 ft 355 kts 243°
2026-04-20 01:02 19.29731 -55.80938 40019 ft 355 kts 243°
2026-04-20 01:03 19.27820 -55.85774 40019 ft 356 kts 243°
2026-04-20 01:03 19.25906 -55.90613 40019 ft 356 kts 243°
2026-04-20 01:04 19.24003 -55.95420 40028 ft 356 kts 243°
2026-04-20 01:04 19.22086 -56.00256 40029 ft 356 kts 243°
2026-04-20 01:05 19.20164 -56.05104 40027 ft 357 kts 243°
2026-04-20 01:05 19.18241 -56.09949 40027 ft 357 kts 243°
2026-04-20 01:06 19.16317 -56.14791 40028 ft 357 kts 243°
2026-04-20 01:06 19.14402 -56.19605 40029 ft 357 kts 243°
2026-04-20 01:07 19.12471 -56.24458 40020 ft 357 kts 243°
2026-04-20 01:07 19.10541 -56.29303 40020 ft 357 kts 243°
2026-04-20 01:08 19.08623 -56.34113 40017 ft 357 kts 243°
2026-04-20 01:08 19.06690 -56.38955 40019 ft 357 kts 243°
2026-04-20 01:09 19.04755 -56.43801 40019 ft 357 kts 243°
2026-04-20 01:09 19.02817 -56.48648 40020 ft 357 kts 243°
2026-04-20 01:10 19.00895 -56.53451 40029 ft 357 kts 243°
2026-04-20 01:10 18.97989 -56.60705 40029 ft 357 kts 243°
2026-04-20 01:11 18.96053 -56.65532 40027 ft 357 kts 243°
2026-04-20 01:11 18.94113 -56.70366 40028 ft 357 kts 243°
2026-04-20 01:12 18.92174 -56.75192 40027 ft 357 kts 243°
2026-04-20 01:12 18.90232 -56.80023 40036 ft 357 kts 243°
2026-04-20 01:13 18.88298 -56.84827 40040 ft 357 kts 243°
2026-04-20 01:13 18.86354 -56.89653 40038 ft 357 kts 243°
2026-04-20 01:14 18.84409 -56.94480 40040 ft 357 kts 243°
2026-04-20 01:14 18.82459 -56.99312 40034 ft 357 kts 243°
2026-04-20 01:15 18.80510 -57.04138 40040 ft 357 kts 243°
2026-04-20 01:15 18.78569 -57.08941 40037 ft 358 kts 243°
2026-04-20 01:16 18.76617 -57.13765 40032 ft 358 kts 243°
2026-04-20 01:16 18.74657 -57.18607 40033 ft 358 kts 243°
2026-04-20 01:17 18.72700 -57.23436 40035 ft 358 kts 243°
2026-04-20 01:17 18.70738 -57.28274 40038 ft 358 kts 243°
2026-04-20 01:18 18.68790 -57.33070 40040 ft 358 kts 243°
2026-04-20 01:18 18.66826 -57.37906 40033 ft 359 kts 243°
2026-04-20 01:19 18.64855 -57.42752 40034 ft 359 kts 243°
2026-04-20 01:19 18.62884 -57.47596 40038 ft 359 kts 242°
2026-04-20 01:20 18.60910 -57.52441 40042 ft 360 kts 242°
2026-04-20 01:20 18.58933 -57.57290 40046 ft 360 kts 242°
2026-04-20 01:21 18.56954 -57.62140 40052 ft 361 kts 242°
2026-04-20 01:21 18.54968 -57.67003 40046 ft 361 kts 242°
2026-04-20 01:22 18.52990 -57.71842 40049 ft 362 kts 242°
2026-04-20 01:22 18.50996 -57.76718 40051 ft 362 kts 242°
2026-04-20 01:23 18.48997 -57.81599 40046 ft 363 kts 242°
2026-04-20 01:23 18.46996 -57.86483 40043 ft 363 kts 242°
2026-04-20 01:24 18.44989 -57.91374 40051 ft 364 kts 242°
2026-04-20 01:24 18.42981 -57.96267 40045 ft 364 kts 242°
2026-04-20 01:25 18.40972 -58.01157 40044 ft 364 kts 242°
2026-04-20 01:25 18.38973 -58.06019 40052 ft 364 kts 242°
2026-04-20 01:26 18.36960 -58.10911 40042 ft 364 kts 242°
2026-04-20 01:26 18.34945 -58.15801 40049 ft 364 kts 242°
2026-04-20 01:27 18.32927 -58.20696 40051 ft 364 kts 242°
2026-04-20 01:27 18.30905 -58.25598 40042 ft 365 kts 242°
2026-04-20 01:28 18.28883 -58.30495 40043 ft 365 kts 242°
2026-04-20 01:28 18.26862 -58.35385 40050 ft 364 kts 242°
2026-04-20 01:29 18.24851 -58.40246 40049 ft 364 kts 242°
2026-04-20 01:29 18.22827 -58.45135 40040 ft 364 kts 242°
2026-04-20 01:30 18.20798 -58.50033 40032 ft 364 kts 242°
2026-04-20 01:30 18.18772 -58.54917 40031 ft 364 kts 242°
2026-04-20 01:31 18.16749 -58.59792 40026 ft 363 kts 242°
2026-04-20 01:31 18.14740 -58.64629 40028 ft 363 kts 242°
2026-04-20 01:32 18.12716 -58.69498 40027 ft 362 kts 242°
2026-04-20 01:32 18.10699 -58.74346 40036 ft 361 kts 242°
2026-04-20 01:33 18.08683 -58.79188 40037 ft 361 kts 242°
2026-04-20 01:33 18.06683 -58.83986 40036 ft 360 kts 242°
2026-04-20 01:34 18.04672 -58.88807 40040 ft 360 kts 242°
2026-04-20 01:34 18.02662 -58.93625 40035 ft 360 kts 242°
2026-04-20 01:35 18.02322 -58.94440 40036 ft 360 kts 242°
2026-04-20 01:35 17.99103 -59.02796 40039 ft 363 kts 247°
2026-04-20 01:36 17.97571 -59.07869 40039 ft 365 kts 247°
2026-04-20 01:36 17.96042 -59.12957 40040 ft 366 kts 247°
2026-04-20 01:37 17.94491 -59.18078 40037 ft 368 kts 247°
2026-04-20 01:37 17.92940 -59.23178 40044 ft 369 kts 247°
2026-04-20 01:38 17.91371 -59.28323 40055 ft 370 kts 247°
2026-04-20 01:38 17.89797 -59.33475 40055 ft 371 kts 247°
2026-04-20 01:39 17.88218 -59.38641 40053 ft 371 kts 247°
2026-04-20 01:39 17.86637 -59.43804 40059 ft 371 kts 247°
2026-04-20 01:40 17.85058 -59.48959 40055 ft 371 kts 247°
2026-04-20 01:40 17.83481 -59.54099 40049 ft 370 kts 247°
2026-04-20 01:41 17.81906 -59.59231 40048 ft 368 kts 247°
2026-04-20 01:41 17.80346 -59.64305 40048 ft 367 kts 247°
2026-04-20 01:42 17.78782 -59.69389 40042 ft 365 kts 247°
2026-04-20 01:42 17.77221 -59.74458 40048 ft 364 kts 247°
2026-04-20 01:43 17.75665 -59.79503 40046 ft 363 kts 247°
2026-04-20 01:43 17.74112 -59.84535 40052 ft 362 kts 247°
2026-04-20 01:44 17.72559 -59.89562 40061 ft 362 kts 247°
2026-04-20 01:44 17.71012 -59.94560 40054 ft 363 kts 247°
2026-04-20 01:45 17.69451 -59.99602 40059 ft 364 kts 247°
2026-04-20 01:45 17.67885 -60.04655 40053 ft 365 kts 247°
2026-04-20 01:46 17.66312 -60.09726 40057 ft 366 kts 247°
2026-04-20 01:46 17.64735 -60.14807 40051 ft 367 kts 247°
2026-04-20 01:47 17.63151 -60.19901 40053 ft 368 kts 247°
2026-04-20 01:47 17.61564 -60.25003 40053 ft 368 kts 247°
2026-04-20 01:48 17.59976 -60.30105 40060 ft 368 kts 247°
2026-04-20 01:48 17.58395 -60.35175 40048 ft 368 kts 247°
2026-04-20 01:49 17.56810 -60.40260 39775 ft 362 kts 247°
2026-04-20 01:49 17.56039 -60.42739 39569 ft 352 kts 246°
2026-04-20 01:49 17.55289 -60.45151 39357 ft 343 kts 246°
2026-04-20 01:50 17.54559 -60.47495 39150 ft 334 kts 246°
2026-04-20 01:50 17.53841 -60.49795 38776 ft 331 kts 245°
2026-04-20 01:50 17.53128 -60.52064 38339 ft 330 kts 246°
2026-04-20 01:50 17.52410 -60.54350 37892 ft 330 kts 246°
2026-04-20 01:51 17.51689 -60.56644 37192 ft 334 kts 246°
2026-04-20 01:51 17.50961 -60.58959 36458 ft 334 kts 246°
2026-04-20 01:51 17.50236 -60.61270 35711 ft 334 kts 247°
2026-04-20 01:51 17.49510 -60.63583 34962 ft 333 kts 247°
2026-04-20 01:52 17.48788 -60.65886 34225 ft 332 kts 248°
2026-04-20 01:52 17.48066 -60.68187 33465 ft 332 kts 248°
2026-04-20 01:52 17.47345 -60.70483 32716 ft 331 kts 248°
2026-04-20 01:52 17.46636 -60.72742 31978 ft 331 kts 248°
2026-04-20 01:53 17.45916 -60.75031 31231 ft 331 kts 249°
2026-04-20 01:53 17.45195 -60.77324 30482 ft 330 kts 249°
2026-04-20 01:53 17.44477 -60.79608 29733 ft 330 kts 249°
2026-04-20 01:53 17.43758 -60.81892 28986 ft 330 kts 250°
2026-04-20 01:54 17.42880 -60.84126 28242 ft 334 kts 241°
2026-04-20 01:54 17.41713 -60.86255 27511 ft 341 kts 240°
2026-04-20 01:54 17.40501 -60.88418 26763 ft 347 kts 240°
2026-04-20 01:54 17.39266 -60.90616 26017 ft 353 kts 240°
2026-04-20 01:55 17.38012 -60.92853 25268 ft 359 kts 240°
2026-04-20 01:55 17.36749 -60.95114 24521 ft 360 kts 241°
2026-04-20 01:55 17.35491 -60.97371 23762 ft 357 kts 241°
2026-04-20 01:55 17.34241 -60.99616 23009 ft 355 kts 241°
2026-04-20 01:56 17.33020 -61.01810 22276 ft 353 kts 241°
2026-04-20 01:56 17.31791 -61.04021 21527 ft 351 kts 242°
2026-04-20 01:56 17.30565 -61.06227 20775 ft 349 kts 242°
2026-04-20 01:56 17.29349 -61.08415 20019 ft 347 kts 242°
2026-04-20 01:57 17.28140 -61.10589 19279 ft 345 kts 242°
2026-04-20 01:57 17.26936 -61.12754 18528 ft 343 kts 242°
2026-04-20 01:57 17.25738 -61.14907 17788 ft 342 kts 242°
2026-04-20 01:57 17.24545 -61.17053 17038 ft 340 kts 242°
2026-04-20 01:58 17.23358 -61.19185 16287 ft 339 kts 241°
2026-04-20 01:58 17.22175 -61.21310 15538 ft 337 kts 241°
2026-04-20 01:58 17.21009 -61.23403 14804 ft 337 kts 241°
2026-04-20 01:58 17.19832 -61.25515 14051 ft 336 kts 241°
2026-04-20 01:59 17.18658 -61.27621 13297 ft 334 kts 241°
2026-04-20 01:59 17.17489 -61.29718 12558 ft 333 kts 241°
2026-04-20 01:59 17.16324 -61.31807 11814 ft 332 kts 240°
2026-04-20 01:59 17.15159 -61.33897 11070 ft 332 kts 240°
2026-04-20 02:00 17.13998 -61.35978 10302 ft 331 kts 240°
2026-04-20 02:00 17.12839 -61.38053 9567 ft 330 kts 240°
2026-04-20 02:00 17.11683 -61.40124 8822 ft 330 kts 239°
2026-04-20 02:00 17.10524 -61.42199 8075 ft 330 kts 239°
2026-04-20 02:01 17.09366 -61.44273 7318 ft 330 kts 239°
2026-04-20 02:01 17.08210 -61.46341 6583 ft 328 kts 239°
2026-04-20 02:01 17.07071 -61.48378 5835 ft 327 kts 239°
2026-04-20 02:01 17.05920 -61.50436 5075 ft 326 kts 239°
2026-04-20 02:02 17.04781 -61.52472 4517 ft 320 kts 239°
2026-04-20 02:02 17.03673 -61.54455 4100 ft 311 kts 238°
2026-04-20 02:02 17.02613 -61.56350 3987 ft 291 kts 239°
2026-04-20 02:02 17.01626 -61.58115 3976 ft 272 kts 238°
2026-04-20 02:03 17.00708 -61.59756 3981 ft 258 kts 238°
2026-04-20 02:03 16.99814 -61.61351 4018 ft 250 kts 238°
2026-04-20 02:03 16.98959 -61.62876 3983 ft 234 kts 238°
2026-04-20 02:03 16.98168 -61.64289 3944 ft 218 kts 238°
2026-04-20 02:04 16.97409 -61.65642 3727 ft 213 kts 238°
2026-04-20 02:04 16.96668 -61.66962 3538 ft 209 kts 238°
2026-04-20 02:04 16.95933 -61.68272 3353 ft 209 kts 238°
2026-04-20 02:04 16.95194 -61.69589 3146 ft 211 kts 238°
2026-04-20 02:05 16.94716 -61.71023 2905 ft 212 kts 274°
2026-04-20 02:05 16.94999 -61.72499 2753 ft 207 kts 276°
2026-04-20 02:05 16.94915 -61.73996 2586 ft 208 kts 260°
2026-04-20 02:05 16.94510 -61.75439 2496 ft 208 kts 236°
2026-04-20 02:06 16.93470 -61.76408 2514 ft 200 kts 216°
2026-04-20 02:06 16.92666 -61.77615 2519 ft 206 kts 249°
2026-04-20 02:06 16.92387 -61.79092 2505 ft 208 kts 269°
2026-04-20 02:06 16.92472 -61.80576 2514 ft 207 kts 279°
2026-04-20 02:07 16.92689 -61.82070 2511 ft 209 kts 280°
2026-04-20 02:07 16.92930 -61.83577 2509 ft 211 kts 282°
2026-04-20 02:07 16.93239 -61.85074 2495 ft 210 kts 286°
2026-04-20 02:07 16.93639 -61.86518 2489 ft 204 kts 290°
2026-04-20 02:08 16.94128 -61.87906 2489 ft 203 kts 295°
2026-04-20 02:08 16.94697 -61.89228 2475 ft 195 kts 299°
2026-04-20 02:08 16.95316 -61.90438 2486 ft 183 kts 304°
2026-04-20 02:08 16.95967 -61.91534 2508 ft 172 kts 308°
2026-04-20 02:09 16.96643 -61.92532 2505 ft 170 kts 311°
2026-04-20 02:09 16.97373 -61.93488 2488 ft 167 kts 315°
2026-04-20 02:09 16.98133 -61.94374 2492 ft 161 kts 319°
2026-04-20 02:09 16.98919 -61.95192 2514 ft 154 kts 322°
2026-04-20 02:10 16.99713 -61.95933 2516 ft 153 kts 325°
2026-04-20 02:10 17.00536 -61.96643 2514 ft 154 kts 327°
2026-04-20 02:10 17.01392 -61.97310 2510 ft 153 kts 331°
2026-04-20 02:10 17.02282 -61.97913 2513 ft 151 kts 338°
2026-04-20 02:11 17.03265 -61.98113 2520 ft 141 kts
2026-04-20 02:11 17.04216 -61.97947 2510 ft 136 kts 26°
2026-04-20 02:11 17.05020 -61.97473 2516 ft 132 kts 42°
2026-04-20 02:11 17.05636 -61.96785 2500 ft 129 kts 63°
2026-04-20 02:12 17.06009 -61.95923 2362 ft 131 kts 67°
2026-04-20 02:12 17.06380 -61.95058 2187 ft 129 kts 67°
2026-04-20 02:12 17.06744 -61.94198 2003 ft 129 kts 68°
2026-04-20 02:12 17.07102 -61.93341 1814 ft 129 kts 67°
2026-04-20 02:13 17.07465 -61.92488 1600 ft 130 kts 68°
2026-04-20 02:13 17.07827 -61.91624 1373 ft 130 kts 68°
2026-04-20 02:13 17.08188 -61.90754 1174 ft 131 kts 68°
2026-04-20 02:13 17.08531 -61.89887 1045 ft 130 kts 70°
2026-04-20 02:14 17.08847 -61.89004 959 ft 130 kts 71°
2026-04-20 02:14 17.09149 -61.88119 911 ft 128 kts 71°
2026-04-20 02:14 17.09466 -61.87247 824 ft 128 kts 69°
2026-04-20 02:14 17.09803 -61.86375 723 ft 131 kts 69°
2026-04-20 02:15 17.10165 -61.85496 622 ft 131 kts 66°
2026-04-20 02:15 17.10564 -61.84648 538 ft 132 kts 63°
2026-04-20 02:15 17.11023 -61.83800 467 ft 134 kts 61°
2026-04-20 02:15 17.11515 -61.82946 406 ft 139 kts 57°
2026-04-20 02:16 17.12019 -61.82082 330 ft 143 kts 60°
2026-04-20 02:16 17.12528 -61.81204 220 ft 139 kts 57°
2026-04-20 02:16 17.13035 -61.80354 95 ft 136 kts 59°
2026-04-20 02:16 17.13505 -61.79551 64 ft 119 kts 59°
2026-04-20 02:17 17.13860 -61.78946 60 ft 67 kts 58°
2026-04-20 02:17 17.14014 -61.78683 61 ft 17 kts 56°
2026-04-20 02:17 17.14086 -61.78646 62 ft 7 kts 327°
2026-04-20 02:17 17.14099 -61.78694 66 ft 7 kts 275°
2026-04-20 02:18 17.14103 -61.78748 60 ft 8 kts 275°
2026-04-20 02:18 17.14106 -61.78787 65 ft 8 kts 274°
2026-04-20 02:18 17.14093 -61.78881 60 ft 11 kts 242°
2026-04-20 02:18 17.14054 -61.78948 57 ft 11 kts 239°
2026-04-20 02:19 17.14017 -61.79013 61 ft 10 kts 238°
2026-04-20 02:19 17.13991 -61.79054 56 ft 10 kts 235°
2026-04-20 02:19 17.13977 -61.79112 57 ft 7 kts 287°
2026-04-20 02:19 17.13993 -61.79133 62 ft 2 kts 328°
2026-04-20 02:20 17.14012 -61.79145 62 ft 4 kts 328°
2026-04-20 02:20 17.14027 -61.79154 62 ft 2 kts 328°
2026-04-20 02:20 17.14032 -61.79157 62 ft 0 kts 328°